Flag Weather past 2 weeks in Pictou County, Nova Scotia, Canada

Now
46 °F

Cool.


Feels Like: 39 °F
Forecast: 35 / 55 °F
Wind: 16 mph from South

Location: Caribou Point

Current Time: Nov 24, 2014 at 12:52:02 PM

Latest Report: Nov 24, 2014 at 12:00 PM


Visibility: N/A

Pressure: 30.17 "Hg

Humidity: 70%

Dew point: 37 °F

Location of Pictou CountyLocation

Historic Weather in Pictou County — Graph

°F

Pictou County temperature yesterday

Maximum temperature yesterday: 43 °F (at 2:00 PM)
Minimum temperature yesterday: 35 °F (at 11:00 PM)
Average temperature yesterday: 39 °F

Past Weeks' High & Low Weather Summary

 TemperatureHumidityPressure
High60 °F (Nov 18, 12:00 PM)96% (Nov 12, 4:00 AM)30.31 "Hg (Nov 12, 4:00 AM)
Low20 °F (Nov 22, 7:00 AM)41% (Nov 19, 3:00 PM)29.23 "Hg (Nov 18, 12:00 PM)
Average37 °F76%29.97 "Hg
* Reported Nov 9 11:00 AM — Nov 24 11:00 AM, Pictou County, Weather by CustomWeather, © 2014

Note: Actual official high and low records may vary slightly from our data, if they occured in-between our weather recording intervals... More about our weather records

Advertising

Pictou County weather history for previous 24 hours

 ConditionsComfort  
Time TempWeatherWind HumidityBarometerVisibility
11:00 AM
Nov 24
45 °FCool.17 mph67%30.21 "HgN/A
10:00 AM43 °FQuite cool.14 mph77%30.24 "HgN/A
9:00 AM40 °FChilly.12 mph82%30.24 "HgN/A
8:00 AM39 °FChilly.10 mph83%30.24 "HgN/A
7:00 AM37 °FChilly.6 mph84%30.23 "HgN/A
6:00 AM39 °FChilly.6 mph83%30.24 "HgN/A
5:00 AM38 °FChilly.3 mph82%30.23 "HgN/A
4:00 AM38 °FChilly.7 mph79%30.24 "HgN/A
3:00 AM37 °FChilly.3 mph86%30.23 "HgN/A
2:00 AM36 °FChilly.5 mph81%30.21 "HgN/A
1:00 AM35 °FChilly.3 mph82%30.20 "HgN/A
12:00 AM35 °FChilly.7 mph82%30.21 "HgN/A
11:00 PM
Nov 23
35 °FChilly.6 mph82%30.19 "HgN/A
10:00 PM35 °FChilly.7 mph82%30.18 "HgN/A
9:00 PM37 °FChilly.7 mph75%30.14 "HgN/A
8:00 PM38 °FChilly.7 mph67%30.14 "HgN/A
7:00 PM42 °FQuite cool.18 mph69%30.12 "HgN/A
6:00 PM40 °FQuite cool.10 mph70%30.11 "HgN/A
5:00 PM42 °FQuite cool.12 mph67%30.06 "HgN/A
4:00 PM42 °FQuite cool.21 mph65%30.04 "HgN/A
3:00 PM43 °FQuite cool.20 mph64%30.01 "HgN/A
2:00 PM43 °FQuite cool.23 mph68%29.99 "HgN/A
1:00 PM43 °FQuite cool.21 mph70%29.97 "HgN/A
12:00 PM40 °FQuite cool.23 mph77%29.96 "HgN/A
Weather by CustomWeather, © 2014

See weather overviewHow to use our weather pages